When you browse on this site, cookies collect data to enhance your experience and personalize the content and advertising you see.
Visit our Privacy Policy to learn more. By continuing to use the site, you agree to this use of cookies and data.

Stündliche Wetter Grekovo

Heute, 3 Juli, Freitag

Zeit Temperatur Niederschläge Wind Luftdruck Luftfeuchtigkeit
00:00 +19°C° 0.1 mm 3 m/S 741 mmHg 89%
01:00 +19°C° 0 mm 3 m/S 742 mmHg 91%
02:00 +19°C° 0 mm 3 m/S 742 mmHg 92%
03:00 +18°C° 0 mm 3 m/S 742 mmHg 92%
04:00 +19°C° 0 mm 3 m/S 742 mmHg 92%
05:00 +19°C° 0 mm 3 m/S 742 mmHg 91%
06:00 +19°C° 0 mm 3 m/S 742 mmHg 91%
07:00 +21°C° 0.3 mm 3 m/S 742 mmHg 88%
08:00 +22°C° 0.3 mm 3 m/S 742 mmHg 85%
09:00 +25°C° 0 mm 3 m/S 743 mmHg 82%
10:00 +26°C° 0.5 mm 4 m/S 743 mmHg 79%
11:00 +26°C° 0.5 mm 4 m/S 743 mmHg 76%
12:00 +27°C° 0.5 mm 4 m/S 743 mmHg 73%
13:00 +27°C° 1 mm 4 m/S 743 mmHg 73%
14:00 +28°C° 1 mm 4 m/S 743 mmHg 73%
15:00 +28°C° 0 mm 4 m/S 743 mmHg 75%
16:00 +27°C° 1 mm 3 m/S 743 mmHg 77%
17:00 +27°C° 1 mm 3 m/S 743 mmHg 79%
18:00 +27°C° 1 mm 2 m/S 742 mmHg 81%
19:00 +26°C° 0.2 mm 2 m/S 743 mmHg 82%
20:00 +24°C° 0.2 mm 2 m/S 743 mmHg 84%
21:00 +23°C° 0.2 mm 2 m/S 743 mmHg 85%
22:00 +21°C° 0 mm 2 m/S 743 mmHg 85%
23:00 +21°C° 0 mm 2 m/S 742 mmHg 85%

Morgen, 4 Juli, Samstag

Zeit Temperatur Niederschläge Wind Luftdruck Luftfeuchtigkeit
00:00 +20°C° 0 mm 2 m/S 742 mmHg 85%
01:00 +20°C° 0 mm 2 m/S 742 mmHg 85%
02:00 +19°C° 0 mm 2 m/S 742 mmHg 86%
03:00 +19°C° 0 mm 2 m/S 742 mmHg 86%
04:00 +19°C° 0 mm 2 m/S 742 mmHg 87%
05:00 +20°C° 0 mm 2 m/S 742 mmHg 88%
06:00 +20°C° 0 mm 2 m/S 742 mmHg 89%
07:00 +23°C° 0 mm 2 m/S 742 mmHg 86%
08:00 +24°C° 0 mm 2 m/S 742 mmHg 83%
09:00 +26°C° 0 mm 3 m/S 742 mmHg 80%
10:00 +27°C° 0.1 mm 3 m/S 742 mmHg 75%
11:00 +28°C° 0.1 mm 3 m/S 742 mmHg 70%
12:00 +29°C° 0.1 mm 3 m/S 742 mmHg 65%
13:00 +29°C° 0.9 mm 3 m/S 742 mmHg 67%
14:00 +29°C° 0.9 mm 3 m/S 742 mmHg 69%
15:00 +29°C° 0.9 mm 4 m/S 741 mmHg 70%
16:00 +28°C° 0.6 mm 3 m/S 741 mmHg 74%
17:00 +28°C° 0.6 mm 3 m/S 741 mmHg 77%
18:00 +27°C° 0.6 mm 2 m/S 741 mmHg 80%
19:00 +26°C° 0.2 mm 2 m/S 741 mmHg 82%
20:00 +25°C° 0.2 mm 2 m/S 741 mmHg 84%
21:00 +24°C° 0.2 mm 1 m/S 741 mmHg 86%
22:00 +23°C° 0.2 mm 2 m/S 741 mmHg 87%
23:00 +21°C° 0.2 mm 2 m/S 741 mmHg 88%

übermorgen, 5 Juli, Sonntag

Zeit Temperatur Niederschläge Wind Luftdruck Luftfeuchtigkeit
00:00 +21°C° 0.2 mm 2 m/S 741 mmHg 89%
01:00 +20°C° 0 mm 2 m/S 741 mmHg 90%
02:00 +20°C° 0 mm 2 m/S 741 mmHg 90%
03:00 +20°C° 0 mm 2 m/S 741 mmHg 90%
04:00 +20°C° 0 mm 2 m/S 741 mmHg 90%
05:00 +20°C° 0 mm 2 m/S 741 mmHg 90%
06:00 +22°C° 0 mm 1 m/S 741 mmHg 90%
07:00 +21°C° 0 mm 2 m/S 741 mmHg 88%
08:00 +23°C° 0 mm 2 m/S 741 mmHg 86%
09:00 +24°C° 0 mm 2 m/S 741 mmHg 84%
10:00 +25°C° 0 mm 2 m/S 741 mmHg 80%
11:00 +26°C° 0 mm 2 m/S 741 mmHg 76%
12:00 +27°C° 0 mm 2 m/S 741 mmHg 72%
13:00 +26°C° 0.9 mm 2 m/S 741 mmHg 76%
14:00 +25°C° 0.9 mm 2 m/S 741 mmHg 81%
15:00 +23°C° 0.9 mm 2 m/S 741 mmHg 86%
16:00 +24°C° 0 mm 2 m/S 741 mmHg 84%
17:00 +24°C° 0 mm 2 m/S 740 mmHg 83%
18:00 +24°C° 0 mm 1 m/S 740 mmHg 82%
19:00 +23°C° 0 mm 2 m/S 740 mmHg 83%
20:00 +23°C° 0 mm 2 m/S 740 mmHg 85%
21:00 +21°C° 0 mm 2 m/S 741 mmHg 86%
22:00 +20°C° 0 mm 2 m/S 740 mmHg 87%
23:00 +19°C° 0 mm 2 m/S 740 mmHg 89%

6 Juli, Montag

Zeit Temperatur Niederschläge Wind Luftdruck Luftfeuchtigkeit
00:00 +19°C° 0 mm 2 m/S 740 mmHg 90%
01:00 +19°C° 0 mm 1 m/S 740 mmHg 90%
02:00 +19°C° 0 mm 1 m/S 741 mmHg 91%
03:00 +17°C° 0 mm 0 m/S 741 mmHg 91%
04:00 +19°C° 0 mm 1 m/S 741 mmHg 91%
05:00 +20°C° 0 mm 1 m/S 741 mmHg 90%
06:00 +21°C° 0 mm 1 m/S 741 mmHg 89%
07:00 +22°C° 0 mm 1 m/S 741 mmHg 84%
08:00 +22°C° 0 mm 0 m/S 741 mmHg 79%
09:00 +23°C° 0 mm 0 m/S 741 mmHg 74%
10:00 +26°C° 0 mm 1 m/S 741 mmHg 71%
11:00 +27°C° 0 mm 1 m/S 741 mmHg 68%
12:00 +27°C° 0 mm 1 m/S 741 mmHg 64%
13:00 +28°C° 0 mm 1 m/S 741 mmHg 63%
14:00 +28°C° 0 mm 2 m/S 741 mmHg 63%
15:00 +29°C° 0 mm 2 m/S 740 mmHg 62%
16:00 +29°C° 0.1 mm 1 m/S 740 mmHg 64%
17:00 +29°C° 0.1 mm 1 m/S 740 mmHg 66%
18:00 +29°C° 0.1 mm 1 m/S 740 mmHg 68%
19:00 +27°C° 0 mm 1 m/S 740 mmHg 72%
20:00 +25°C° 0 mm 1 m/S 740 mmHg 76%
21:00 +24°C° 0 mm 1 m/S 740 mmHg 80%
22:00 +23°C° 0 mm 1 m/S 740 mmHg 82%
23:00 +23°C° 0 mm 1 m/S 740 mmHg 84%

7 Juli, Dienstag

Zeit Temperatur Niederschläge Wind Luftdruck Luftfeuchtigkeit
00:00 +21°C° 0 mm 2 m/S 739 mmHg 86%
01:00 +21°C° 0 mm 2 m/S 739 mmHg 86%
02:00 +20°C° 0 mm 2 m/S 739 mmHg 86%
03:00 +20°C° 0 mm 2 m/S 739 mmHg 87%
04:00 +20°C° 0 mm 2 m/S 739 mmHg 86%
05:00 +21°C° 0 mm 2 m/S 739 mmHg 85%
06:00 +21°C° 0 mm 2 m/S 739 mmHg 84%
07:00 +23°C° 0 mm 2 m/S 739 mmHg 80%
08:00 +25°C° 0 mm 2 m/S 739 mmHg 76%
09:00 +26°C° 0 mm 3 m/S 739 mmHg 73%
10:00 +27°C° 0 mm 2 m/S 739 mmHg 69%
11:00 +29°C° 0 mm 2 m/S 738 mmHg 65%
12:00 +30°C° 0 mm 2 m/S 738 mmHg 61%
13:00 +30°C° 0 mm 2 m/S 738 mmHg 63%
14:00 +30°C° 0 mm 3 m/S 738 mmHg 64%
15:00 +30°C° 0 mm 3 m/S 737 mmHg 65%
16:00 +30°C° 0 mm 3 m/S 737 mmHg 68%
17:00 +30°C° 0 mm 2 m/S 737 mmHg 70%
18:00 +30°C° 0 mm 2 m/S 737 mmHg 73%
19:00 +29°C° 0.1 mm 2 m/S 737 mmHg 75%
20:00 +27°C° 0.1 mm 1 m/S 737 mmHg 78%
21:00 +26°C° 0.1 mm 1 m/S 737 mmHg 80%
22:00 +25°C° 0.1 mm 1 m/S 737 mmHg 80%
23:00 +24°C° 0.1 mm 2 m/S 737 mmHg 80%

8 Juli, Mittwoch

Zeit Temperatur Niederschläge Wind Luftdruck Luftfeuchtigkeit
00:00 +24°C° 0.1 mm 2 m/S 737 mmHg 80%
01:00 +23°C° 0.1 mm 2 m/S 736 mmHg 79%
02:00 +21°C° 0.1 mm 2 m/S 736 mmHg 78%
03:00 +21°C° 0.1 mm 2 m/S 736 mmHg 78%
04:00 +21°C° 0.4 mm 2 m/S 736 mmHg 81%
05:00 +21°C° 0.4 mm 2 m/S 736 mmHg 85%
06:00 +22°C° 0.4 mm 1 m/S 736 mmHg 88%
07:00 +21°C° 0.2 mm 2 m/S 737 mmHg 87%
08:00 +23°C° 0.2 mm 2 m/S 737 mmHg 85%
09:00 +24°C° 0.2 mm 2 m/S 737 mmHg 83%
10:00 +25°C° 0 mm 3 m/S 737 mmHg 82%
11:00 +25°C° 0 mm 3 m/S 737 mmHg 81%
12:00 +26°C° 0 mm 4 m/S 738 mmHg 80%
13:00 +25°C° 0 mm 4 m/S 738 mmHg 81%
14:00 +25°C° 0 mm 5 m/S 738 mmHg 81%
15:00 +23°C° 0 mm 5 m/S 738 mmHg 82%
16:00 +23°C° 0 mm 5 m/S 738 mmHg 82%
17:00 +23°C° 0 mm 5 m/S 738 mmHg 82%
18:00 +22°C° 0 mm 4 m/S 738 mmHg 82%
19:00 +22°C° 0 mm 4 m/S 738 mmHg 84%
20:00 +21°C° 0 mm 3 m/S 739 mmHg 86%
21:00 +20°C° 0 mm 2 m/S 739 mmHg 88%
22:00 +19°C° 0.1 mm 3 m/S 739 mmHg 86%
23:00 +19°C° 0.1 mm 4 m/S 739 mmHg 84%
Mehr zeigen